TimeCDT,TemperatureF,Dew PointF,Humidity,Sea Level PressureIn,VisibilityMPH,Wind Direction,Wind SpeedMPH,Gust SpeedMPH,PrecipitationIn,Events,Conditions,WindDirDegrees,DateUTC
12:15 AM,52.5,36.5,54,30.11,10.0,Calm,Calm,-,N/A,,Clear,0,2014-03-15 05:15:00
12:35 AM,49.8,36.7,61,30.11,10.0,Calm,Calm,-,N/A,,Clear,0,2014-03-15 05:35:00
12:55 AM,48.0,36.9,65,30.11,10.0,Calm,Calm,-,N/A,,Clear,0,2014-03-15 05:55:00
1:15 AM,47.3,37.2,68,30.11,10.0,Calm,Calm,-,N/A,,Clear,0,2014-03-15 06:15:00
1:35 AM,46.2,37.2,71,30.11,10.0,Calm,Calm,-,N/A,,Clear,0,2014-03-15 06:35:00
1:55 AM,45.7,37.6,73,30.11,10.0,Calm,Calm,-,N/A,,Clear,0,2014-03-15 06:55:00
2:15 AM,45.5,37.4,73,30.11,10.0,Calm,Calm,-,N/A,,Clear,0,2014-03-15 07:15:00
2:35 AM,45.5,37.6,74,30.11,10.0,Calm,Calm,-,N/A,,Clear,0,2014-03-15 07:35:00
2:55 AM,45.5,37.6,74,30.11,10.0,Calm,Calm,-,N/A,,Mostly Cloudy,0,2014-03-15 07:55:00
3:15 AM,45.9,38.1,74,30.10,10.0,South,3.5,-,N/A,,Overcast,190,2014-03-15 08:15:00
3:35 AM,45.7,38.3,75,30.11,10.0,South,3.5,-,N/A,,Scattered Clouds,190,2014-03-15 08:35:00
3:55 AM,46.6,37.6,71,30.10,10.0,Calm,Calm,-,N/A,,Scattered Clouds,0,2014-03-15 08:55:00
4:15 AM,48.2,37.6,67,30.10,10.0,Calm,Calm,-,N/A,,Scattered Clouds,0,2014-03-15 09:15:00
4:35 AM,49.3,37.6,64,30.10,10.0,South,3.5,-,N/A,,Scattered Clouds,190,2014-03-15 09:35:00
4:55 AM,48.0,37.6,67,30.10,10.0,Calm,Calm,-,N/A,,Clear,0,2014-03-15 09:55:00
5:15 AM,46.9,37.8,70,30.10,10.0,Calm,Calm,-,N/A,,Clear,0,2014-03-15 10:15:00
5:35 AM,45.5,37.9,75,30.11,10.0,Calm,Calm,-,N/A,,Clear,0,2014-03-15 10:35:00
5:55 AM,44.8,37.6,76,30.11,10.0,SSW,3.5,-,N/A,,Clear,200,2014-03-15 10:55:00
6:15 AM,44.4,37.4,76,30.12,10.0,Calm,Calm,-,N/A,,Clear,0,2014-03-15 11:15:00
6:35 AM,44.4,37.2,76,30.12,10.0,Calm,Calm,-,N/A,,Clear,0,2014-03-15 11:35:00
6:55 AM,44.1,37.6,78,30.12,10.0,Calm,Calm,-,N/A,,Clear,0,2014-03-15 11:55:00
7:15 AM,44.8,37.6,76,30.12,10.0,Calm,Calm,-,N/A,,Clear,0,2014-03-15 12:15:00
7:35 AM,45.0,37.9,76,30.13,10.0,Calm,Calm,-,N/A,,Clear,0,2014-03-15 12:35:00
7:55 AM,45.9,38.8,76,30.13,10.0,South,3.5,-,N/A,,Clear,190,2014-03-15 12:55:00
8:15 AM,47.8,39.4,72,30.14,10.0,South,3.5,-,N/A,,Scattered Clouds,190,2014-03-15 13:15:00
8:35 AM,50.4,40.3,68,30.14,10.0,SSW,3.5,-,N/A,,Overcast,200,2014-03-15 13:35:00
8:55 AM,52.2,39.7,63,30.14,10.0,SSW,4.6,-,N/A,,Mostly Cloudy,200,2014-03-15 13:55:00
9:15 AM,53.6,39.6,59,30.14,10.0,South,5.8,-,N/A,,Scattered Clouds,190,2014-03-15 14:15:00
9:35 AM,55.2,40.3,57,30.14,10.0,SSW,3.5,-,N/A,,Scattered Clouds,200,2014-03-15 14:35:00
9:55 AM,56.3,40.8,56,30.14,10.0,SSW,3.5,-,N/A,,Mostly Cloudy,210,2014-03-15 14:55:00
10:15 AM,56.7,41.4,57,30.14,10.0,Calm,Calm,-,N/A,,Overcast,0,2014-03-15 15:15:00
10:35 AM,57.4,42.3,57,30.15,10.0,Calm,Calm,-,N/A,,Mostly Cloudy,0,2014-03-15 15:35:00
10:55 AM,58.6,42.6,55,30.14,10.0,Calm,Calm,-,N/A,,Mostly Cloudy,0,2014-03-15 15:55:00
11:15 AM,59.4,42.8,54,30.14,10.0,Calm,Calm,-,N/A,,Mostly Cloudy,0,2014-03-15 16:15:00
11:35 AM,60.8,42.4,51,30.14,10.0,Calm,Calm,-,N/A,,Scattered Clouds,0,2014-03-15 16:35:00
11:55 AM,61.2,43.3,52,30.14,10.0,Calm,Calm,-,N/A,,Clear,0,2014-03-15 16:55:00
12:15 PM,62.1,43.3,50,30.13,10.0,Calm,Calm,-,N/A,,Scattered Clouds,0,2014-03-15 17:15:00
12:35 PM,63.7,43.3,48,30.13,10.0,ESE,3.5,-,N/A,,Scattered Clouds,110,2014-03-15 17:35:00
1:15 PM,64.8,43.3,46,30.11,10.0,SSW,3.5,-,N/A,,Clear,200,2014-03-15 18:15:00
1:35 PM,64.9,43.2,45,30.10,10.0,South,4.6,-,N/A,,Clear,180,2014-03-15 18:35:00
1:55 PM,65.5,43.0,44,30.08,10.0,East,6.9,-,N/A,,Scattered Clouds,90,2014-03-15 18:55:00
2:15 PM,66.0,42.4,42,30.08,10.0,Calm,Calm,-,N/A,,Scattered Clouds,0,2014-03-15 19:15:00
2:35 PM,66.6,41.2,40,30.07,10.0,Calm,Calm,-,N/A,,Scattered Clouds,0,2014-03-15 19:35:00
2:55 PM,66.4,42.3,41,30.06,10.0,South,6.9,-,N/A,,Clear,190,2014-03-15 19:55:00
3:15 PM,66.4,42.6,42,30.06,10.0,SSW,6.9,-,N/A,,Scattered Clouds,200,2014-03-15 20:15:00
3:35 PM,66.6,42.8,42,30.04,10.0,South,3.5,-,N/A,,Scattered Clouds,170,2014-03-15 20:35:00
3:55 PM,66.2,42.6,42,30.04,10.0,WSW,3.5,-,N/A,,Scattered Clouds,240,2014-03-15 20:55:00
4:15 PM,65.8,42.6,43,30.04,10.0,South,3.5,-,N/A,,Scattered Clouds,190,2014-03-15 21:15:00
4:35 PM,65.5,43.2,44,30.03,10.0,South,6.9,-,N/A,,Scattered Clouds,190,2014-03-15 21:35:00
4:55 PM,64.8,43.9,47,30.03,10.0,SW,6.9,-,N/A,,Mostly Cloudy,220,2014-03-15 21:55:00
5:15 PM,64.6,44.1,47,30.02,10.0,South,5.8,-,N/A,,Overcast,170,2014-03-15 22:15:00
5:35 PM,64.4,44.4,48,30.03,10.0,SSE,5.8,-,N/A,,Overcast,150,2014-03-15 22:35:00
5:55 PM,63.9,44.8,50,30.02,10.0,SE,3.5,-,N/A,,Mostly Cloudy,140,2014-03-15 22:55:00
6:15 PM,63.3,44.8,51,30.02,10.0,SE,3.5,-,N/A,,Mostly Cloudy,140,2014-03-15 23:15:00
6:35 PM,62.8,45.0,52,30.02,10.0,Calm,Calm,-,N/A,,Mostly Cloudy,0,2014-03-15 23:35:00
6:55 PM,62.2,45.3,54,30.02,10.0,Calm,Calm,-,N/A,,Mostly Cloudy,0,2014-03-15 23:55:00
7:15 PM,61.2,46.0,58,30.01,10.0,Calm,Calm,-,N/A,,Overcast,0,2014-03-16 00:15:00
7:35 PM,60.8,46.0,58,30.01,10.0,South,3.5,-,N/A,,Overcast,170,2014-03-16 00:35:00
7:55 PM,60.6,45.7,58,30.01,10.0,Calm,Calm,-,N/A,,Overcast,0,2014-03-16 00:55:00
8:15 PM,59.5,45.9,61,30.01,10.0,Calm,Calm,-,N/A,,Mostly Cloudy,0,2014-03-16 01:15:00
8:35 PM,59.5,45.7,60,30.00,10.0,SSE,3.5,-,N/A,,Scattered Clouds,150,2014-03-16 01:35:00
8:55 PM,59.2,45.9,61,30.00,10.0,ESE,4.6,-,N/A,,Scattered Clouds,110,2014-03-16 01:55:00
9:15 PM,58.3,46.0,64,30.00,10.0,ESE,3.5,-,N/A,,Clear,120,2014-03-16 02:15:00
9:35 PM,59.0,45.7,61,30.00,10.0,SE,3.5,-,N/A,,Clear,130,2014-03-16 02:35:00
9:55 PM,59.4,45.7,61,30.00,10.0,SSE,3.5,-,N/A,,Clear,150,2014-03-16 02:55:00
10:15 PM,59.4,45.7,61,29.99,10.0,SE,4.6,-,N/A,,Clear,130,2014-03-16 03:15:00
10:35 PM,59.0,45.7,61,30.00,10.0,SSE,3.5,-,N/A,,Clear,160,2014-03-16 03:35:00
10:55 PM,58.3,45.9,63,30.01,10.0,SSE,5.8,-,N/A,,Clear,160,2014-03-16 03:55:00
11:15 PM,58.6,45.9,63,29.99,10.0,SSE,5.8,-,N/A,Rain,Light Rain,150,2014-03-16 04:15:00
11:35 PM,58.1,46.2,65,29.97,10.0,SSE,3.5,-,N/A,,Light Drizzle,150,2014-03-16 04:35:00
11:55 PM,57.6,46.4,66,29.97,10.0,SE,3.5,-,N/A,,Clear,140,2014-03-16 04:55:00